MPEC 2006-U56 : 2006 UG64

The following Minor Planet Electronic Circular may be linked-to from your own Web pages, but must not otherwise be redistributed electronically.


Read MPEC 2006-U55 Read MPEC 2006-U57


M.P.E.C. 2006-U56                                Issued 2006 Oct. 24, 16:02 UT

     The Minor Planet Electronic Circulars contain information on unusual
         minor planets and routine data on comets.  They are published
   on behalf of Commission 20 of the International Astronomical Union by the
          Minor Planet Center, Smithsonian Astrophysical Observatory,
                          Cambridge, MA 02138, U.S.A.

             Prepared using the Tamkin Foundation Computer Network

                              MPC@CFA.HARVARD.EDU
          URL http://cfa-www.harvard.edu/iau/mpc.html  ISSN 1523-6714

                                   2006 UG64

Observations:
     K06U64G* C2006 10 23.46046 22 12 31.93 -47 51 27.6          19.5 V EU056E12
     K06U64G  C2006 10 23.47000 22 12 34.34 -47 51 28.4          20.0 V EU056E12
     K06U64G  C2006 10 23.47955 22 12 36.90 -47 51 28.8          19.8 V EU056E12
     K06U64G  C2006 10 23.48906 22 12 39.38 -47 51 28.7          19.7 V EU056E12
     K06U64G  C2006 10 23.49855 22 12 41.65 -47 51 29.7          18.7 V EU056E12
     K06U64G  C2006 10 23.53795 22 12 52.04 -47 51 31.5                 EU056E12
     K06U64G  C2006 10 23.54380 22 12 53.56 -47 51 30.3          19.5 V EU056E12
     K06U64G  C2006 10 23.54962 22 12 55.17 -47 51 31.0          19.4 V EU056E12
     K06U64G  C2006 10 23.55550 22 12 56.67 -47 51 30.5          18.9 V EU056E12
     K06U64G  C2006 10 23.57402 22 13 01.56 -47 51 30.3          19.2 V EU056E12
     K06U64G  C2006 10 23.58294 22 13 03.86 -47 51 30.4          19.1 V EU056E12
     K06U64G  C2006 10 23.59191 22 13 06.20 -47 51 30.6          19.5 V EU056E12
     K06U64G  C2006 10 23.60087 22 13 08.72 -47 51 31.7          18.8 V EU056E12
     K06U64G  C2006 10 23.61720 22 13 12.93 -47 51 30.5          19.3 R EU056E12
     K06U64G  C2006 10 24.47836 22 17 04.52 -47 51 54.7          19.3 R EU056474
     K06U64G  C2006 10 24.47963 22 17 04.85 -47 51 54.5          19.2 R EU056474
     K06U64G  C2006 10 24.48414 22 17 06.03 -47 51 54.7          19.2 R EU056474
     K06U64G  C2006 10 24.49645 22 17 09.558-47 51 59.76         19.2 R EU056E12
     K06U64G  C2006 10 24.50147 22 17 10.849-47 51 59.62         19.3 R EU056E12
     K06U64G  C2006 10 24.54979 22 17 23.423-47 51 57.08         19.3 R EU056E12

Observer details:
474 Mount John Observatory, Lake Tekapo.  Observer A. C. Gilmore.  1.0-m f/7.7
    reflector + CCD.
E12 Siding Spring Survey.  Observer G. J. Garradd.  Measurers E. C. Beshore,
    E. J. Christensen, G. J. Garradd, A. R. Gibbs, A. D. Grauer, R. E. Hill,
    R. A. Kowalski, S. M. Larson, R. H. McNaught.  0.5-m Uppsala Schmidt + CCD.

Orbital elements:
2006 UG64                                                Earth MOID = 0.2090 AU
Epoch 2006 Sept. 22.0 TT = JDT 2454000.5                MPC
M 355.08328              (2000.0)            P               Q
n   0.37035908     Peri.  204.13338     +0.98541564     +0.03693515
a   1.9203809      Node   152.15141     -0.02329654     +0.99625060
e   0.3761562      Incl.   20.82944     -0.16856244     +0.07823382
P   2.66           H   18.6           G   0.15           U   9
Residuals in seconds of arc
061023 E12  0.4+  0.3+    061023 E12  0.4+  0.4-    061024 474  0.1-  0.1+
061023 E12  0.3-  0.0     061023 E12  0.0   0.2+    061024 474  0.1-  0.2+
061023 E12  0.5+  0.0     061023 E12  0.3+  0.5+    061024 474  0.1-  0.2-
061023 E12  0.6+  0.5+    061023 E12  0.2-  0.4+    061024 E12  0.2+  0.1-
061023 E12  1.4-  0.2-    061023 E12  0.5-  0.2+    061024 E12  0.1+  0.1-
061023 E12  0.3-  1.0-    061023 E12  1.0+  0.9-    061024 E12  0.1+  0.1+
061023 E12  0.4-  0.3+    061023 E12  0.1-  0.2+

Ephemeris:
2006 UG64                a,e,i = 1.92, 0.38, 21                  q = 1.1980
Date    TT    R. A. (2000) Decl.     Delta      r     Elong.  Phase     V
2006 10 22    22 05.98   -47 48.4    0.488    1.209   103.9    53.1    19.4
2006 11 01    22 49.94   -47 20.5    0.540    1.225   102.1    52.4    19.6
2006 11 11    23 30.33   -45 17.0    0.595    1.248   101.0    51.1    19.8
2006 11 21    00 06.19   -42 02.9    0.653    1.278   100.2    49.6    20.1
2006 12 01    00 37.87   -37 59.5    0.716    1.312    99.6    47.8    20.3
2006 12 11    01 06.14   -33 25.1    0.784    1.351    99.0    46.1    20.5
2006 12 21    01 31.86   -28 33.5    0.858    1.393    98.1    44.4    20.7
2006 12 31    01 55.83   -23 36.5    0.940    1.439    96.8    42.7    20.9
2007 01 10    02 18.59   -18 44.0    1.030    1.486    95.1    41.2    21.1
2007 01 20    02 40.57   -14 03.1    1.129    1.535    92.9    39.8    21.4
2007 01 30    03 02.11   -09 39.1    1.236    1.585    90.3    38.4    21.6
2007 02 09    03 23.39   -05 35.8    1.351    1.635    87.3    37.1    21.8
2007 02 19    03 44.55   -01 55.1    1.474    1.685    83.9    35.7    22.0

Kyle E. Smalley              (C) Copyright 2006 MPC           M.P.E.C. 2006-U56

Read MPEC 2006-U55 Read MPEC 2006-U57


Our Web policy. Index to the CBAT/MPC/ICQ pages.

MPC

Valid HTML 4.01!